This demonstration page uses our WeatherBlox Daily Observations layout. Learn more.

Hourly Observations for March 3, 2015

Temp ( °F °C ) Dew Point ( °F °C ) Humidity (%) Winds ( mph kmh ) Pressure ( in mb ) Visibility ( mi km ) Precip ( " mm )
12:15 am 00:15 Cloudy 28 -2.1 21 -6.2 74 74 SSE 15 24 29.8 1009 10 16.0934 0 0
12:35 am 00:35 Cloudy 28 -2.2 21 -6 75 75 SSE 16 26 29.77 1008 10 16.0934 0 0
12:55 am 00:55 Cloudy 28 -2.2 22 -5.8 77 77 SSE 16 26 29.77 1008 10 16.0934 0 0
1:15 am 01:15 Cloudy 28 -2.2 22 -5.6 78 78 SSE 10 17 29.77 1008 10 16.0934 0 0
1:35 am 01:35 Cloudy 28 -2.1 22 -5.5 78 78 SSE 12 19 29.77 1008 10 16.0934 0 0
1:55 am 01:55 Cloudy 28 -2 23 -5.2 79 79 S 10 17 29.77 1008 10 16.0934 0 0
2:15 am 02:15 Cloudy 28 -2 23 -5 80 80 S 9 15 29.74 1007 10 16.0934 0 0
2:35 am 02:35 Cloudy 28 -2 23 -5 80 80 SSE 6 9 29.74 1007 10 16.0934 0 0
2:55 am 02:55 Cloudy 28 -2 23 -5 80 80 SE 9 15 29.71 1006 10 16.0934 0 0
3:15 am 03:15 Cloudy 29 -1.8 24 -4.6 81 81 ESE 7 11 29.68 1005 10 16.0934 0 0
3:35 am 03:35 Cloudy 29 -1.7 24 -4.5 81 81 Calm 29.71 1006 10 16.0934 0 0
3:55 am 03:55 Cloudy 29 -1.7 24 -4.5 81 81 Calm 29.71 1006 10 16.0934 0 0
4:15 am 04:15 Cloudy 29 -1.7 24 -4.5 81 81 Calm 29.71 1006 10 16.0934 0 0
4:35 am 04:35 Cloudy 29 -1.6 24 -4.5 81 81 Calm 29.71 1006 10 16.0934 0 0
4:55 am 04:55 Cloudy 29 -1.6 24 -4.5 81 81 N 6 9 29.71 1006 10 16.0934 0 0
5:15 am 05:15 Cloudy 29 -1.7 24 -4.6 81 81 N 5 7 29.74 1007 10 16.0934 0 0
5:35 am 05:35 Cloudy 29 -1.8 24 -4.7 81 81 NW 6 9 29.74 1007 10 16.0934 0 0
5:55 am 05:55 Mostly Cloudy 28 -2.5 23 -5.1 83 83 NW 6 9 29.77 1008 10 16.0934 0 0
6:15 am 06:15 Cloudy 28 -2.2 23 -5 81 81 NNW 7 11 29.77 1008 10 16.0934 0 0
6:35 am 06:35 Cloudy 28 -2.2 23 -5 81 81 NNW 8 13 29.77 1008 10 16.0934 0 0
6:55 am 06:55 Cloudy 28 -2.4 23 -5.2 81 81 NW 7 11 29.8 1009 10 16.0934 0 0
7:15 am 07:15 Cloudy 27 -2.6 22 -5.5 81 81 NW 6 9 29.85 1011 10 16.0934 0 0
7:35 am 07:35 Cloudy 27 -2.7 22 -5.5 81 81 NW 8 13 29.85 1011 10 16.0934 0 0
7:55 am 07:55 Cloudy 28 -2.1 23 -5.1 80 80 NW 10 17 29.83 1010 10 16.0934 0 0
8:15 am 08:15 Mostly Cloudy 28 -2 23 -5.1 80 80 NW 13 20 29.85 1011 10 16.0934 0 0
8:35 am 08:35 Mostly Cloudy 30 -1.2 24 -4.6 78 78 NW 15 24 29.88 1012 10 16.0934 0 0
8:55 am 08:55 Cloudy 31 -0.5 24 -4.2 76 76 NW 15 24 29.88 1012 10 16.0934 0 0
9:15 am 09:15 Cloudy 32 0 26 -3.6 77 77 NNW 16 26 29.88 1012 10 16.0934 0 0
9:35 am 09:35 Cloudy 31 -0.4 23 -4.8 72 72 N 23 37 29.91 1013 10 16.0934 0 0
9:55 am 09:55 Cloudy 30 -1.2 19 -7 65 65 N 25 41 29.94 1014 10 16.0934 0 0
10:15 am 10:15 Mostly Cloudy 30 -1.1 18 -7.7 61 61 N 21 33 29.94 1014 10 16.0934 0 0
10:35 am 10:35 Mostly Cloudy 27 -2.6 15 -9.5 59 59 N 23 37 30 1016 10 16.0934 0 0
10:55 am 10:55 Partly Cloudy 28 -2.2 15 -9.5 58 58 N 23 37 30 1016 10 16.0934 0 0
11:15 am 11:15 Sunny 28 -2.3 14 -9.8 57 57 N 25 41 30.03 1017 10 16.0934 0 0
11:35 am 11:35 Sunny 30 -1.3 14 -9.9 52 52 N 23 37 30 1016 10 16.0934 0 0
11:55 am 11:55 Sunny 31 -0.8 14 -10.2 49 49 N 22 35 30 1016 10 16.0934 0 0
12:15 pm 12:15 Sunny 32 0 14 -10.2 47 47 NNW 21 33 30 1016 10 16.0934 0 0
12:35 pm 12:35 Sunny 31 -0.5 13 -10.7 46 46 N 22 35 30.03 1017 10 16.0934 0 0
12:55 pm 12:55 Partly Cloudy 32 -0.1 13 -10.8 45 45 N 22 35 30 1016 10 16.0934 0 0
1:15 pm 13:15 Mostly Cloudy 31 -0.4 12 -11.1 45 45 N 20 31 30.03 1017 10 16.0934 0 0
1:35 pm 13:35 Partly Cloudy 32 0.1 12 -11 43 43 N 23 37 30 1016 10 16.0934 0 0
1:55 pm 13:55 Sunny 33 0.3 11 -11.6 41 41 N 21 33 30 1016 10 16.0934 0 0
2:15 pm 14:15 Sunny 32 0 11 -11.8 41 41 N 16 26 30.03 1017 10 16.0934 0 0
2:35 pm 14:35 Sunny 32 0 11 -11.8 41 41 N 23 37 30 1016 10 16.0934 0 0
2:55 pm 14:55 Sunny 32 0 10 -12 40 40 N 23 37 30 1016 10 16.0934 0 0
3:15 pm 15:15 Sunny 32 0 10 -12.5 39 39 N 22 35 30 1016 10 16.0934 0 0
3:35 pm 15:35 Sunny 32 0 10 -12.5 39 39 N 24 39 30 1016 10 16.0934 0 0
3:55 pm 15:55 Sunny 32 0 9 -12.6 38 38 N 21 33 30 1016 10 16.0934 0 0
4:15 pm 16:15 Sunny 32 0.1 9 -12.9 37 37 N 22 35 30 1016 10 16.0934 0 0
4:35 pm 16:35 Sunny 32 0 7 -13.9 35 35 N 14 22 30.03 1017 10 16.0934 0 0
4:55 pm 16:55 Sunny 32 -0.1 7 -13.7 35 35 NNE 16 26 30.03 1017 10 16.0934 0 0
5:15 pm 17:15 Sunny 31 -0.5 8 -13.6 37 37 N 15 24 30.03 1017 10 16.0934 0 0
5:35 pm 17:35 Sunny 30 -0.9 8 -13.5 38 38 N 15 24 30.06 1018 10 16.0934 0 0
5:55 pm 17:55 Sunny 29 -1.5 6 -14.6 36 36 N 16 26 30.09 1019 10 16.0934 0 0
6:15 pm 18:15 Sunny 27 -2.6 2 -16.4 34 34 N 13 20 30.09 1019 10 16.0934 0 0
6:35 pm 18:35 Clear 26 -3.6 1 -17.2 34 34 N 13 20 30.12 1020 10 16.0934 0 0
6:55 pm 18:55 Clear 24 -4.5 0 -17.7 35 35 N 13 20 30.12 1020 10 16.0934 0 0
7:15 pm 19:15 Clear 23 -5.2 -1 -18.1 36 36 N 12 19 30.15 1021 10 16.0934 0 0
7:35 pm 19:35 Clear 22 -5.6 -1 -18.4 36 36 N 13 20 30.15 1021 10 16.0934 0 0
7:55 pm 19:55 Clear 21 -6 0 -17.7 39 39 N 12 19 30.15 1021 10 16.0934 0 0
8:35 pm 20:35 Mostly Cloudy 21 -6.2 1 -17 42 42 N 12 19 30.18 1022 10 16.0934 0 0
8:55 pm 20:55 Cloudy 21 -6 1 -17 42 42 N 10 17 30.24 1024 10 16.0934 0 0
9:15 pm 21:15 Cloudy 22 -5.5 2 -16.7 41 41 N 14 22 30.21 1023 10 16.0934 0 0
9:35 pm 21:35 Cloudy 22 -5.5 2 -16.5 42 42 N 12 19 30.24 1024 10 16.0934 0 0
9:55 pm 21:55 Cloudy 22 -5.6 3 -16.2 43 43 N 13 20 30.27 1025 10 16.0934 0 0
10:15 pm 22:15 Cloudy with Light Snow 22 -5.8 5 -14.9 49 49 NNW 18 30 30.27 1025 7 11.26538 0 0
10:35 pm 22:35 Cloudy with Light Snow 20 -6.8 10 -12.5 64 64 N 14 22 30.3 1026 4 6.43736 0 0
10:55 pm 22:55 Cloudy with Light Snow 19 -7.4 11 -11.4 73 73 N 14 22 30.3 1026 1.75 2.816345 0 0
11:15 pm 23:15 Cloudy with Light Snow 18 -8 14 -10 86 86 N 8 13 30.3 1026 1.25 2.011675 0 0
11:35 pm 23:35 Cloudy with Light Snow 18 -8 14 -9.9 86 86 N 10 17 30.3 1026 1.5 2.41401 0 0
11:55 pm 23:55 Cloudy with Light Snow 17 -8.1 14 -9.8 88 88 N 12 19 30.3 1026 1.25 2.011675 0 0

Powered by AerisWeather